Location: Luxembourg
(49.6117°N, 6.1300°E)
Time: 17:39:04
(UTC+01:00)

Tiangong 2 - Pass Details

Date: 26 January 2019
Orbit: 381 x 390 km, 42.8° (Epoch: 19 February)

Event Time Altitude Azimuth Distance (km) Brightness Sun altitude
Exits shadow 06:24:35 14° 198° (SSW) 1,198 3.4 -17.9°
Drops below altitude 10° 06:26:12 10° 167° (SSE) 1,407 4.2 -17.7°
Sets 06:28:59 0° 141° (SE) 2,261 5.7 -17.2°
